EN

Hourly Weather Ablis

Today, 1 December, Tuesday

Time Temperature Precipitation Wind Pressure Humidity
00:00 +7°C° 0.2 mm 6 mps 752 mmHg 89%
01:00 +7°C° 0.3 mm 6 mps 751 mmHg 88%
02:00 +7°C° 0.3 mm 6 mps 751 mmHg 86%
03:00 +7°C° 0.3 mm 6 mps 751 mmHg 84%
04:00 +6°C° 0 mm 5 mps 751 mmHg 83%
05:00 +5°C° 0 mm 5 mps 751 mmHg 83%
06:00 +3°C° 0 mm 5 mps 751 mmHg 82%
07:00 +3°C° 0 mm 5 mps 751 mmHg 80%
08:00 +3°C° 0 mm 5 mps 752 mmHg 78%
09:00 +5°C° 0 mm 5 mps 752 mmHg 76%
10:00 +5°C° 0 mm 6 mps 752 mmHg 72%
11:00 +5°C° 0 mm 6 mps 752 mmHg 69%
12:00 +6°C° 0 mm 7 mps 752 mmHg 66%
13:00 +6°C° 0 mm 7 mps 751 mmHg 67%
14:00 +6°C° 0 mm 7 mps 751 mmHg 69%
15:00 +7°C° 0 mm 6 mps 751 mmHg 70%
16:00 +5°C° 0.1 mm 6 mps 751 mmHg 73%
17:00 +5°C° 0.1 mm 6 mps 751 mmHg 75%
18:00 +5°C° 0.1 mm 5 mps 751 mmHg 78%
19:00 +5°C° 0 mm 5 mps 751 mmHg 79%
20:00 +3°C° 0 mm 5 mps 751 mmHg 80%
21:00 +3°C° 0 mm 5 mps 751 mmHg 81%
22:00 +3°C° 0 mm 5 mps 751 mmHg 80%
23:00 +3°C° 0 mm 5 mps 751 mmHg 80%

Tomorrow, 2 December, Wednesday

Time Temperature Precipitation Wind Pressure Humidity
00:00 +3°C° 0 mm 5 mps 751 mmHg 79%
01:00 +3°C° 0.1 mm 5 mps 750 mmHg 80%
02:00 +3°C° 0.1 mm 5 mps 750 mmHg 81%
03:00 +3°C° 0.1 mm 5 mps 750 mmHg 82%
04:00 +5°C° 0 mm 5 mps 750 mmHg 84%
05:00 +5°C° 0 mm 5 mps 750 mmHg 86%
06:00 +5°C° 0 mm 5 mps 750 mmHg 88%
07:00 +5°C° 0 mm 4 mps 749 mmHg 88%
08:00 +5°C° 0 mm 4 mps 749 mmHg 88%
09:00 +5°C° 0 mm 3 mps 749 mmHg 88%
10:00 +5°C° 0 mm 3 mps 749 mmHg 85%
11:00 +7°C° 0 mm 3 mps 749 mmHg 82%
12:00 +7°C° 0 mm 3 mps 749 mmHg 79%
13:00 +7°C° 0 mm 2 mps 748 mmHg 79%
14:00 +7°C° 0 mm 2 mps 748 mmHg 80%
15:00 +7°C° 0 mm 2 mps 748 mmHg 81%
16:00 +8°C° 0 mm 1 mps 748 mmHg 82%
17:00 +7°C° 0 mm 1 mps 747 mmHg 84%
18:00 +7°C° 0 mm 1 mps 747 mmHg 86%
19:00 +6°C° 0 mm 2 mps 747 mmHg 87%
20:00 +6°C° 0 mm 2 mps 747 mmHg 88%
21:00 +6°C° 0 mm 2 mps 747 mmHg 89%
22:00 +6°C° 0 mm 2 mps 746 mmHg 88%
23:00 +5°C° 0 mm 2 mps 746 mmHg 87%

Day after tomorrow, 3 December, Thursday

Time Temperature Precipitation Wind Pressure Humidity
00:00 +5°C° 0 mm 2 mps 745 mmHg 86%
01:00 +4°C° 0 mm 3 mps 745 mmHg 85%
02:00 +4°C° 0 mm 3 mps 744 mmHg 85%
03:00 +4°C° 0 mm 4 mps 743 mmHg 84%
04:00 +4°C° 0.1 mm 4 mps 743 mmHg 86%
05:00 +4°C° 0.1 mm 4 mps 742 mmHg 88%
06:00 +4°C° 0.1 mm 4 mps 741 mmHg 89%
07:00 +4°C° 0.1 mm 4 mps 741 mmHg 90%
08:00 +4°C° 0.1 mm 3 mps 740 mmHg 90%
09:00 +4°C° 0.1 mm 3 mps 739 mmHg 90%
10:00 +5°C° 0 mm 4 mps 739 mmHg 86%
11:00 +5°C° 0 mm 4 mps 738 mmHg 82%
12:00 +6°C° 0 mm 5 mps 737 mmHg 78%
13:00 +5°C° 0.2 mm 5 mps 736 mmHg 80%
14:00 +5°C° 0.2 mm 5 mps 735 mmHg 81%
15:00 +5°C° 0.2 mm 5 mps 734 mmHg 82%
16:00 +5°C° 0.1 mm 5 mps 733 mmHg 84%
17:00 +3°C° 0.1 mm 5 mps 732 mmHg 86%
18:00 +3°C° 0.1 mm 5 mps 731 mmHg 88%
19:00 +3°C° 0.5 mm 5 mps 730 mmHg 88%
20:00 +3°C° 0.5 mm 5 mps 729 mmHg 89%
21:00 +3°C° 0.5 mm 5 mps 728 mmHg 89%
22:00 +3°C° 0.4 mm 5 mps 727 mmHg 90%
23:00 +3°C° 0.4 mm 5 mps 726 mmHg 90%

4 December, Friday

Time Temperature Precipitation Wind Pressure Humidity
00:00 +5°C° 0.4 mm 5 mps 725 mmHg 90%
01:00 +4°C° 1.1 mm 4 mps 724 mmHg 91%
02:00 +4°C° 1.1 mm 4 mps 723 mmHg 92%
03:00 +4°C° 1.1 mm 4 mps 722 mmHg 93%
04:00 +4°C° 1 mm 4 mps 722 mmHg 91%
05:00 +4°C° 1 mm 4 mps 722 mmHg 89%
06:00 +4°C° 1 mm 4 mps 722 mmHg 88%
07:00 +4°C° 0 mm 4 mps 722 mmHg 87%
08:00 +4°C° 0 mm 4 mps 722 mmHg 86%
09:00 +3°C° 0 mm 4 mps 723 mmHg 85%
10:00 +4°C° 0 mm 4 mps 723 mmHg 84%
11:00 +4°C° 0 mm 4 mps 723 mmHg 82%
12:00 +3°C° 0 mm 5 mps 724 mmHg 80%
13:00 +3°C° 0.1 mm 5 mps 724 mmHg 78%
14:00 +4°C° 0.1 mm 4 mps 724 mmHg 77%
15:00 +4°C° 0.1 mm 4 mps 725 mmHg 75%
16:00 +3°C° 0 mm 4 mps 725 mmHg 79%
17:00 +3°C° 0 mm 4 mps 726 mmHg 82%
18:00 +1°C° 0 mm 4 mps 726 mmHg 85%
19:00 +1°C° 0 mm 4 mps 727 mmHg 86%
20:00 +1°C° 0 mm 4 mps 727 mmHg 86%
21:00 +1°C° 0 mm 3 mps 728 mmHg 87%
22:00 0°C° 0 mm 4 mps 728 mmHg 87%
23:00 -1°C° 0 mm 4 mps 728 mmHg 87%

5 December, Saturday

Time Temperature Precipitation Wind Pressure Humidity
00:00 -1°C° 0 mm 4 mps 728 mmHg 88%
01:00 -1°C° 0 mm 4 mps 728 mmHg 87%
02:00 -2°C° 0 mm 4 mps 728 mmHg 86%
03:00 -2°C° 0 mm 4 mps 728 mmHg 85%
04:00 -2°C° 0 mm 4 mps 729 mmHg 85%
05:00 -2°C° 0 mm 4 mps 729 mmHg 84%
06:00 -1°C° 0 mm 3 mps 729 mmHg 84%
07:00 -1°C° 0 mm 4 mps 729 mmHg 84%
08:00 -1°C° 0 mm 4 mps 730 mmHg 84%
09:00 -1°C° 0 mm 5 mps 730 mmHg 85%
10:00 0°C° 0.1 mm 5 mps 730 mmHg 84%
11:00 -1°C° 0.1 mm 6 mps 730 mmHg 84%
12:00 +1°C° 0.1 mm 6 mps 730 mmHg 84%
13:00 +1°C° 0.6 mm 5 mps 730 mmHg 88%
14:00 +1°C° 0.6 mm 5 mps 730 mmHg 91%
15:00 0°C° 0.6 mm 4 mps 730 mmHg 95%
16:00 0°C° 0.9 mm 4 mps 730 mmHg 95%
17:00 +1°C° 0.9 mm 4 mps 731 mmHg 95%
18:00 +2°C° 0.9 mm 3 mps 731 mmHg 95%
19:00 +2°C° 0.2 mm 3 mps 731 mmHg 95%
20:00 +3°C° 0.2 mm 2 mps 731 mmHg 96%
21:00 +3°C° 0.2 mm 2 mps 731 mmHg 96%
22:00 +3°C° 0 mm 2 mps 732 mmHg 95%
23:00 +3°C° 0 mm 2 mps 732 mmHg 95%

6 December, Sunday

Time Temperature Precipitation Wind Pressure Humidity
00:00 +3°C° 0 mm 2 mps 732 mmHg 95%
01:00 +3°C° 0 mm 2 mps 733 mmHg 94%
02:00 +3°C° 0 mm 2 mps 733 mmHg 93%
03:00 +2°C° 0 mm 2 mps 734 mmHg 92%
04:00 +2°C° 0 mm 2 mps 734 mmHg 92%
05:00 +2°C° 0 mm 2 mps 734 mmHg 93%
06:00 +1°C° 0 mm 2 mps 735 mmHg 93%
07:00 +3°C° 0 mm 1 mps 735 mmHg 92%
08:00 +3°C° 0 mm 1 mps 736 mmHg 90%
09:00 +3°C° 0 mm 1 mps 736 mmHg 89%
10:00 +4°C° 0 mm 1 mps 736 mmHg 85%
11:00 +4°C° 0 mm 2 mps 736 mmHg 80%
12:00 +4°C° 0 mm 2 mps 737 mmHg 76%
13:00 +4°C° 0 mm 2 mps 737 mmHg 77%
14:00 +4°C° 0 mm 2 mps 737 mmHg 78%
15:00 +4°C° 0 mm 2 mps 737 mmHg 79%
16:00 +4°C° 0.1 mm 2 mps 737 mmHg 83%
17:00 +3°C° 0.1 mm 3 mps 737 mmHg 87%
18:00 +3°C° 0.1 mm 3 mps 738 mmHg 91%
19:00 +3°C° 0 mm 3 mps 738 mmHg 91%
20:00 +3°C° 0 mm 3 mps 738 mmHg 91%
21:00 +2°C° 0 mm 3 mps 738 mmHg 92%
22:00 +2°C° 0 mm 3 mps 738 mmHg 91%
23:00 +2°C° 0 mm 3 mps 739 mmHg 90%
Show more